Time,TemperatureF,DewpointF,PressureIn,WindDirection,WindDirectionDegrees,WindSpeedMPH,WindSpeedGustMPH,Humidity,HourlyPrecipIn,Conditions,Clouds,dailyrainin,SolarRadiationWatts/m^2,SoftwareType,DateUTC
2013-03-03 00:01:00,38.0,19.0,-100.00,SW,217,11.0,17.0,46,0.00,,,0.00,0.000000,,2013-03-03 08:01:00,
2013-03-03 00:11:00,38.0,19.0,-100.00,SW,217,11.0,17.0,46,0.00,,,0.00,0.000000,,2013-03-03 08:11:00,
2013-03-03 00:32:00,37.0,18.0,-100.00,SW,223,11.0,17.0,46,0.00,,,0.00,0.000000,,2013-03-03 08:32:00,
2013-03-03 00:42:00,37.0,18.0,-100.00,SW,223,11.0,17.0,46,0.00,,,0.00,0.000000,,2013-03-03 08:42:00,
2013-03-03 00:54:00,37.0,18.0,-100.00,SW,223,11.0,17.0,46,0.00,,,0.00,0.000000,,2013-03-03 08:54:00,
2013-03-03 01:01:00,37.0,18.0,-100.00,SW,223,11.0,17.0,46,0.00,,,0.00,0.000000,,2013-03-03 09:01:00,
2013-03-03 01:11:00,37.0,18.0,-100.00,SW,223,11.0,17.0,46,0.00,,,0.00,0.000000,,2013-03-03 09:11:00,
2013-03-03 01:32:00,37.0,17.0,-100.00,SW,234,13.0,20.0,43,0.00,,,0.00,0.000000,,2013-03-03 09:32:00,
2013-03-03 01:42:00,37.0,17.0,-100.00,SW,234,13.0,20.0,43,0.00,,,0.00,0.000000,,2013-03-03 09:42:00,
2013-03-03 01:52:00,37.0,17.0,-100.00,SW,234,13.0,20.0,43,0.00,,,0.00,0.000000,,2013-03-03 09:52:00,
2013-03-03 02:01:00,37.0,17.0,-100.00,SW,234,13.0,20.0,43,0.00,,,0.00,0.000000,,2013-03-03 10:01:00,
2013-03-03 02:11:00,37.0,17.0,-100.00,SW,234,13.0,20.0,43,0.00,,,0.00,0.000000,,2013-03-03 10:11:00,
2013-03-03 02:32:00,36.0,17.0,-100.00,SW,218,9.0,17.0,45,0.00,,,0.00,0.000000,,2013-03-03 10:32:00,
2013-03-03 02:42:00,36.0,17.0,-100.00,SW,218,9.0,17.0,45,0.00,,,0.00,0.000000,,2013-03-03 10:42:00,
2013-03-03 02:52:00,36.0,17.0,-100.00,SW,218,9.0,17.0,45,0.00,,,0.00,0.000000,,2013-03-03 10:52:00,
2013-03-03 03:01:00,36.0,17.0,-100.00,SW,218,9.0,17.0,45,0.00,,,0.00,0.000000,,2013-03-03 11:01:00,
2013-03-03 03:11:00,36.0,17.0,-100.00,SW,218,9.0,17.0,45,0.00,,,0.00,0.000000,,2013-03-03 11:11:00,
2013-03-03 03:32:00,34.0,18.0,-100.00,WSW,250,9.0,15.0,52,0.00,,,0.00,0.000000,,2013-03-03 11:32:00,
2013-03-03 03:42:00,34.0,18.0,-100.00,WSW,250,9.0,15.0,52,0.00,,,0.00,0.000000,,2013-03-03 11:42:00,
2013-03-03 03:52:00,34.0,18.0,-100.00,WSW,250,9.0,15.0,52,0.00,,,0.00,0.000000,,2013-03-03 11:52:00,
2013-03-03 04:01:00,34.0,18.0,-100.00,WSW,250,9.0,15.0,52,0.00,,,0.00,0.000000,,2013-03-03 12:01:00,
2013-03-03 04:11:00,34.0,18.0,-100.00,WSW,250,9.0,15.0,52,0.00,,,0.00,0.000000,,2013-03-03 12:11:00,
2013-03-03 04:32:00,34.0,17.0,-100.00,West,275,12.0,18.0,50,0.00,,,0.00,0.000000,,2013-03-03 12:32:00,
2013-03-03 04:43:00,34.0,17.0,-100.00,West,275,12.0,18.0,50,0.00,,,0.00,0.000000,,2013-03-03 12:43:00,
2013-03-03 04:52:00,34.0,17.0,-100.00,West,275,12.0,18.0,50,0.00,,,0.00,0.000000,,2013-03-03 12:52:00,
2013-03-03 05:01:00,34.0,17.0,-100.00,West,275,12.0,18.0,50,0.00,,,0.00,0.000000,,2013-03-03 13:01:00,
2013-03-03 05:11:00,34.0,17.0,-100.00,West,275,12.0,18.0,50,0.00,,,0.00,0.000000,,2013-03-03 13:11:00,
2013-03-03 05:42:00,34.0,20.0,-100.00,West,272,13.0,21.0,57,0.00,,,0.00,0.000000,,2013-03-03 13:42:00,
2013-03-03 05:52:00,34.0,20.0,-100.00,West,272,13.0,21.0,57,0.00,,,0.00,0.000000,,2013-03-03 13:52:00,
2013-03-03 06:01:00,34.0,20.0,-100.00,West,272,13.0,21.0,57,0.00,,,0.00,0.000000,,2013-03-03 14:01:00,
2013-03-03 06:11:00,34.0,20.0,-100.00,West,272,13.0,21.0,57,0.00,,,0.00,0.000000,,2013-03-03 14:11:00,
2013-03-03 06:32:00,33.0,22.0,-100.00,West,266,9.0,23.0,63,0.00,,,0.00,0.000000,,2013-03-03 14:32:00,
2013-03-03 06:42:00,33.0,22.0,-100.00,West,266,9.0,23.0,63,0.00,,,0.00,0.000000,,2013-03-03 14:42:00,
2013-03-03 06:52:00,33.0,22.0,-100.00,West,266,9.0,23.0,63,0.00,,,0.00,0.000000,,2013-03-03 14:52:00,
2013-03-03 07:01:00,33.0,22.0,-100.00,West,266,9.0,23.0,63,0.00,,,0.00,0.000000,,2013-03-03 15:01:00,
2013-03-03 07:11:00,33.0,22.0,-100.00,West,266,9.0,23.0,63,0.00,,,0.00,0.000000,,2013-03-03 15:11:00,
2013-03-03 07:32:00,32.0,22.0,-100.00,WSW,248,8.0,13.0,66,0.00,,,-99.99,25.000000,,2013-03-03 15:32:00,
2013-03-03 07:42:00,32.0,22.0,-100.00,WSW,248,8.0,13.0,66,0.00,,,-99.99,25.000000,,2013-03-03 15:42:00,
2013-03-03 07:52:00,32.0,22.0,-100.00,WSW,248,8.0,13.0,66,0.00,,,-99.99,25.000000,,2013-03-03 15:52:00,
2013-03-03 08:01:00,32.0,22.0,-100.00,WSW,248,8.0,13.0,66,0.00,,,-99.99,25.000000,,2013-03-03 16:01:00,
2013-03-03 08:11:00,32.0,22.0,-100.00,WSW,248,8.0,13.0,66,0.00,,,-99.99,25.000000,,2013-03-03 16:11:00,
2013-03-03 08:32:00,31.0,25.0,-100.00,WSW,243,8.0,11.0,78,0.00,,,0.00,104.000000,,2013-03-03 16:32:00,
2013-03-03 08:42:00,31.0,25.0,-100.00,WSW,243,8.0,11.0,78,0.00,,,0.00,104.000000,,2013-03-03 16:42:00,
2013-03-03 08:52:00,31.0,25.0,-100.00,WSW,243,8.0,11.0,78,0.00,,,0.00,104.000000,,2013-03-03 16:52:00,
2013-03-03 09:01:00,31.0,25.0,-100.00,WSW,243,8.0,11.0,78,0.00,,,0.00,104.000000,,2013-03-03 17:01:00,
2013-03-03 09:11:00,31.0,25.0,-100.00,WSW,243,8.0,11.0,78,0.00,,,0.00,104.000000,,2013-03-03 17:11:00,
2013-03-03 09:42:00,33.0,27.0,-100.00,WNW,285,0.0,13.0,77,0.00,,,0.00,264.000000,,2013-03-03 17:42:00,
2013-03-03 09:52:00,33.0,27.0,-100.00,WNW,285,0.0,13.0,77,0.00,,,0.00,264.000000,,2013-03-03 17:52:00,
2013-03-03 10:01:00,33.0,27.0,-100.00,WNW,285,0.0,13.0,77,0.00,,,0.00,264.000000,,2013-03-03 18:01:00,
2013-03-03 10:11:00,33.0,27.0,-100.00,WNW,285,0.0,13.0,77,0.00,,,0.00,264.000000,,2013-03-03 18:11:00,
2013-03-03 10:32:00,31.0,28.0,-100.00,WNW,283,11.0,14.0,88,0.00,,,0.00,269.000000,,2013-03-03 18:32:00,
2013-03-03 10:42:00,31.0,28.0,-100.00,WNW,283,11.0,14.0,88,0.00,,,0.00,269.000000,,2013-03-03 18:42:00,
2013-03-03 10:52:00,31.0,28.0,-100.00,WNW,283,11.0,14.0,88,0.00,,,0.00,269.000000,,2013-03-03 18:52:00,
2013-03-03 11:01:00,31.0,28.0,-100.00,WNW,283,11.0,14.0,88,0.00,,,0.00,269.000000,,2013-03-03 19:01:00,
2013-03-03 11:11:00,31.0,28.0,-100.00,WNW,283,11.0,14.0,88,0.00,,,0.00,269.000000,,2013-03-03 19:11:00,
2013-03-03 11:42:00,32.0,29.0,-100.00,West,275,10.0,19.0,87,0.00,,,0.00,277.000000,,2013-03-03 19:42:00,
2013-03-03 11:52:00,32.0,29.0,-100.00,West,275,10.0,19.0,87,0.00,,,0.00,277.000000,,2013-03-03 19:52:00,
2013-03-03 12:01:00,32.0,29.0,-100.00,West,275,10.0,19.0,87,0.00,,,0.00,277.000000,,2013-03-03 20:01:00,
2013-03-03 12:11:00,32.0,29.0,-100.00,West,275,10.0,19.0,87,0.00,,,0.00,277.000000,,2013-03-03 20:11:00,
2013-03-03 12:32:00,32.0,27.0,-100.00,West,274,16.0,24.0,81,0.00,,,0.00,511.000000,,2013-03-03 20:32:00,
2013-03-03 12:42:00,32.0,27.0,-100.00,West,274,16.0,24.0,81,0.00,,,0.00,511.000000,,2013-03-03 20:42:00,
2013-03-03 12:52:00,32.0,27.0,-100.00,West,274,16.0,24.0,81,0.00,,,0.00,511.000000,,2013-03-03 20:52:00,
2013-03-03 13:01:00,32.0,27.0,-100.00,West,274,16.0,24.0,81,0.00,,,0.00,511.000000,,2013-03-03 21:01:00,
2013-03-03 13:11:00,32.0,27.0,-100.00,West,274,16.0,24.0,81,0.00,,,0.00,511.000000,,2013-03-03 21:11:00,
2013-03-03 13:42:00,32.0,26.0,-100.00,West,273,0.0,16.0,77,0.00,,,0.00,455.000000,,2013-03-03 21:42:00,
2013-03-03 13:52:00,32.0,26.0,-100.00,West,273,0.0,16.0,77,0.00,,,0.00,455.000000,,2013-03-03 21:52:00,
2013-03-03 14:01:00,32.0,26.0,-100.00,West,273,0.0,16.0,77,0.00,,,0.00,455.000000,,2013-03-03 22:01:00,
2013-03-03 14:11:00,32.0,26.0,-100.00,West,273,0.0,16.0,77,0.00,,,0.00,455.000000,,2013-03-03 22:11:00,
2013-03-03 14:32:00,33.0,26.0,-100.00,West,264,6.0,20.0,76,0.00,,,0.00,449.000000,,2013-03-03 22:32:00,
2013-03-03 14:42:00,33.0,26.0,-100.00,West,264,6.0,20.0,76,0.00,,,0.00,449.000000,,2013-03-03 22:42:00,
2013-03-03 14:52:00,33.0,26.0,-100.00,West,264,6.0,20.0,76,0.00,,,0.00,449.000000,,2013-03-03 22:52:00,
2013-03-03 15:01:00,33.0,26.0,-100.00,West,264,6.0,20.0,76,0.00,,,0.00,449.000000,,2013-03-03 23:01:00,
2013-03-03 15:11:00,33.0,26.0,-100.00,West,264,6.0,20.0,76,0.00,,,0.00,449.000000,,2013-03-03 23:11:00,
2013-03-03 15:32:00,31.0,27.0,-100.00,WSW,252,13.0,21.0,85,0.00,,,0.00,332.000000,,2013-03-03 23:32:00,
2013-03-03 15:42:00,31.0,27.0,-100.00,WSW,252,13.0,21.0,85,0.00,,,0.00,332.000000,,2013-03-03 23:42:00,
2013-03-03 15:52:00,31.0,27.0,-100.00,WSW,252,13.0,21.0,85,0.00,,,0.00,332.000000,,2013-03-03 23:52:00,
2013-03-03 16:01:00,31.0,27.0,-100.00,WSW,252,13.0,21.0,85,0.00,,,0.00,332.000000,,2013-03-04 00:01:00,
2013-03-03 16:11:00,31.0,27.0,-100.00,WSW,252,13.0,21.0,85,0.00,,,0.00,332.000000,,2013-03-04 00:11:00,
2013-03-03 16:32:00,30.0,27.0,-100.00,WSW,249,17.0,22.0,88,0.00,,,0.00,105.000000,,2013-03-04 00:32:00,
2013-03-03 16:42:00,30.0,27.0,-100.00,WSW,249,17.0,22.0,88,0.00,,,0.00,105.000000,,2013-03-04 00:42:00,
2013-03-03 16:52:00,30.0,27.0,-100.00,WSW,249,17.0,22.0,88,0.00,,,0.00,105.000000,,2013-03-04 00:52:00,
2013-03-03 17:01:00,30.0,27.0,-100.00,WSW,249,17.0,22.0,88,0.00,,,0.00,105.000000,,2013-03-04 01:01:00,
2013-03-03 17:11:00,30.0,27.0,-100.00,WSW,249,17.0,22.0,88,0.00,,,0.00,105.000000,,2013-03-04 01:11:00,
2013-03-03 17:32:00,29.0,26.0,-100.00,WSW,248,20.0,25.0,89,0.00,,,0.00,38.000000,,2013-03-04 01:32:00,
2013-03-03 17:42:00,29.0,26.0,-100.00,WSW,248,20.0,25.0,89,0.00,,,0.00,38.000000,,2013-03-04 01:42:00,
2013-03-03 17:52:00,29.0,26.0,-100.00,WSW,248,20.0,25.0,89,0.00,,,0.00,38.000000,,2013-03-04 01:52:00,
2013-03-03 18:01:00,29.0,26.0,-100.00,WSW,248,20.0,25.0,89,0.00,,,0.00,38.000000,,2013-03-04 02:01:00,
2013-03-03 18:11:00,29.0,26.0,-100.00,WSW,248,20.0,25.0,89,0.00,,,0.00,38.000000,,2013-03-04 02:11:00,
2013-03-03 18:42:00,29.0,27.0,-100.00,WSW,255,12.0,29.0,91,0.00,,,0.00,4.000000,,2013-03-04 02:42:00,
2013-03-03 18:52:00,29.0,27.0,-100.00,WSW,255,12.0,29.0,91,0.00,,,0.00,4.000000,,2013-03-04 02:52:00,
2013-03-03 19:01:00,29.0,27.0,-100.00,WSW,255,12.0,29.0,91,0.00,,,0.00,4.000000,,2013-03-04 03:01:00,
2013-03-03 19:11:00,29.0,27.0,-100.00,WSW,255,12.0,29.0,91,0.00,,,0.00,4.000000,,2013-03-04 03:11:00,
2013-03-03 19:32:00,29.0,26.0,-100.00,WSW,258,11.0,20.0,89,0.00,,,0.00,0.000000,,2013-03-04 03:32:00,
2013-03-03 19:42:00,29.0,26.0,-100.00,WSW,258,11.0,20.0,89,0.00,,,0.00,0.000000,,2013-03-04 03:42:00,
2013-03-03 19:52:00,29.0,26.0,-100.00,WSW,258,11.0,20.0,89,0.00,,,0.00,0.000000,,2013-03-04 03:52:00,
2013-03-03 20:01:00,29.0,26.0,-100.00,WSW,258,11.0,20.0,89,0.00,,,0.00,0.000000,,2013-03-04 04:01:00,
2013-03-03 20:11:00,29.0,26.0,-100.00,WSW,258,11.0,20.0,89,0.00,,,0.00,0.000000,,2013-03-04 04:11:00,
2013-03-03 20:32:00,29.0,27.0,-100.00,West,278,0.0,0.0,91,0.00,,,0.00,0.000000,,2013-03-04 04:32:00,
2013-03-03 20:42:00,29.0,27.0,-100.00,West,278,0.0,0.0,91,0.00,,,0.00,0.000000,,2013-03-04 04:42:00,
2013-03-03 20:52:00,29.0,27.0,-100.00,West,278,0.0,0.0,91,0.00,,,0.00,0.000000,,2013-03-04 04:52:00,
2013-03-03 21:01:00,29.0,27.0,-100.00,West,278,0.0,0.0,91,0.00,,,0.00,0.000000,,2013-03-04 05:01:00,
2013-03-03 21:11:00,29.0,27.0,-100.00,West,278,0.0,0.0,91,0.00,,,0.00,0.000000,,2013-03-04 05:11:00,
2013-03-03 21:32:00,27.0,24.0,-100.00,West,266,0.0,0.0,90,0.00,,,0.00,0.000000,,2013-03-04 05:32:00,
2013-03-03 21:42:00,27.0,24.0,-100.00,West,266,0.0,0.0,90,0.00,,,0.00,0.000000,,2013-03-04 05:42:00,
2013-03-03 21:52:00,27.0,24.0,-100.00,West,266,0.0,0.0,90,0.00,,,0.00,0.000000,,2013-03-04 05:52:00,
2013-03-03 22:01:00,27.0,24.0,-100.00,West,266,0.0,0.0,90,0.00,,,0.00,0.000000,,2013-03-04 06:01:00,
2013-03-03 22:11:00,27.0,24.0,-100.00,West,266,0.0,0.0,90,0.00,,,0.00,0.000000,,2013-03-04 06:11:00,
2013-03-03 22:32:00,27.0,24.0,-100.00,WNW,289,0.0,0.0,88,0.00,,,0.00,0.000000,,2013-03-04 06:32:00,
2013-03-03 22:42:00,27.0,24.0,-100.00,WNW,289,0.0,0.0,88,0.00,,,0.00,0.000000,,2013-03-04 06:42:00,
2013-03-03 22:52:00,27.0,24.0,-100.00,WNW,289,0.0,0.0,88,0.00,,,0.00,0.000000,,2013-03-04 06:52:00,
2013-03-03 23:01:00,27.0,24.0,-100.00,WNW,289,0.0,0.0,88,0.00,,,0.00,0.000000,,2013-03-04 07:01:00,
2013-03-03 23:11:00,27.0,24.0,-100.00,WNW,289,0.0,0.0,88,0.00,,,0.00,0.000000,,2013-03-04 07:11:00,
2013-03-03 23:32:00,27.0,24.0,-100.00,West,273,0.0,0.0,90,0.00,,,0.00,0.000000,,2013-03-04 07:32:00,
2013-03-03 23:42:00,27.0,24.0,-100.00,West,273,0.0,0.0,90,0.00,,,0.00,0.000000,,2013-03-04 07:42:00,
2013-03-03 23:52:00,27.0,24.0,-100.00,West,273,0.0,0.0,90,0.00,,,0.00,0.000000,,2013-03-04 07:52:00,